Madison, WI

8:34 AM CDT on September 25, 2016 (GMT -0500)
Dane County Regional-Truax

Weather History for KMSN - July, 2013

Change the Weather History Date:

Tuesday, July 9, 2013

  Actual Average Record
Temperature  
Mean Temperature 78 °F 72 °F  
Max Temperature 85 °F 82 °F 98 °F (1936)
Min Temperature 71 °F 61 °F 47 °F (1961)
Degree Days  
Heating Degree Days 0 0  
Month to date heating degree days 2 0  
Since 1 June heating degree days 54 60  
Since 1 July heating degree days 2 0  
Cooling Degree Days 13 7  
Month to date cooling degree days 73 61  
Year to date cooling degree days 263 211  
Since 1 June cooling degree days 210 181  
Growing Degree Days 28 (Base 50)    
Moisture  
Dew Point 71 °F    
Average Humidity 83    
Maximum Humidity 100    
Minimum Humidity 65    
Precipitation  
Precipitation 1.13 in 0.14 in 2.84 in (1922)
Month to date precipitation 1.66 1.26  
Year to date precipitation 32.61 17.63  
Snow  
Snow 0.00 in 0.00 in 0.00 in ()
Month to date snowfall 0.0 0.0  
Since 1 June snowfall 0.0 0.0  
Since 1 July snowfall 0.0 0.0  
Snow Depth 0.00 in    
Sea Level Pressure  
Sea Level Pressure 29.93 in    
Wind  
Wind Speed 6 mph (South)    
Max Wind Speed 21 mph    
Max Gust Speed 29 mph    
Visibility 6 miles    
Events Rain , Thunderstorm    
T = Trace of Precipitation, MM = Missing Value Source: NWS Daily Summary

Daily Weather History Graph

Daily Weather History Graph

Search for Another Location

Airport or City:

Trip Planner

Search our weather history database for the weather conditions in past years. The results will help you decide how hot, cold, wet, or windy it might be!

Date:

Astronomy

Jul. 09, 2013 Rise Set
Actual Time 5:26 AM CDT 8:38 PM CDT
Civil Twilight 4:52 AM CDT 9:12 PM CDT
Nautical Twilight 4:07 AM CDT 9:57 PM CDT
Astronomical Twilight 3:13 AM CDT 10:51 PM CDT
Moon 6:54 AM CDT (7/9) 9:11 PM CDT (7/9)
Length of Visible Light 16h 20m
Length of Day
15h 11m
New Moon, 2% of the Moon is Illuminated
Jul 9
New Moon
Jul 15
First Quarter
Jul 22
Full
Jul 29
Last Quarter
Aug 6
New

Hourly Weather History & Observations

Time (CDT) Temp. Heat Index Dew Point Humidity Pressure Visibility Wind Dir Wind Speed Gust Speed Precip Events Conditions
12:53 AM 75.0 °F - 72.0 °F 90% 29.99 in 7.0 mi ESE 4.6 mph - N/A   Mostly Cloudy
1:53 AM 73.0 °F - 70.0 °F 90% 29.97 in 9.0 mi ESE 5.8 mph - N/A   Partly Cloudy
2:53 AM 73.0 °F - 69.1 °F 87% 29.97 in 9.0 mi ESE 4.6 mph - N/A   Clear
3:53 AM 72.0 °F - 68.0 °F 87% 29.96 in 10.0 mi Calm Calm - N/A   Clear
4:53 AM 72.0 °F - 69.1 °F 91% 29.95 in 8.0 mi SSE 5.8 mph - N/A   Scattered Clouds
5:03 AM 71.6 °F - 69.8 °F 94% 29.97 in 8.0 mi SSE 4.6 mph - N/A   Mostly Cloudy
5:53 AM 72.0 °F - 70.0 °F 93% 29.94 in 3.0 mi SE 8.1 mph - N/A   Mostly Cloudy
6:23 AM 71.6 °F - 71.6 °F 100% 29.97 in 2.0 mi SSE 6.9 mph - N/A   Overcast
6:27 AM 71.6 °F - 71.6 °F 100% 29.97 in 1.5 mi SSE 6.9 mph - N/A   Overcast
6:32 AM 71.6 °F - 71.6 °F 100% 29.97 in 1.2 mi SSE 5.8 mph - N/A   Overcast
6:43 AM 71.6 °F - 71.6 °F 100% 29.96 in 0.8 mi South 6.9 mph - N/A   Overcast
6:53 AM 72.0 °F - 71.1 °F 97% 29.94 in 0.8 mi SSE 5.8 mph - N/A   Overcast
7:44 AM 73.4 °F - 71.6 °F 94% 29.97 in 1.5 mi SSE 5.8 mph - N/A   Overcast
7:53 AM 73.0 °F - 71.1 °F 93% 29.94 in 1.5 mi SE 5.8 mph - N/A   Mostly Cloudy
8:06 AM 75.2 °F - 71.6 °F 89% 29.95 in 2.5 mi SE 6.9 mph - N/A   Mostly Cloudy
8:37 AM 75.2 °F - 71.6 °F 89% 29.94 in 5.0 mi SSE 6.9 mph - N/A   Mostly Cloudy
8:53 AM 77.0 °F - 72.0 °F 84% 29.93 in 5.0 mi SSE 8.1 mph - N/A   Haze
9:53 AM 78.1 °F - 73.0 °F 84% 29.93 in 5.0 mi South 9.2 mph - N/A   Haze
10:08 AM 78.8 °F - 73.4 °F 83% 29.94 in 7.0 mi South 8.1 mph - N/A Thunderstorm Thunderstorm
10:45 AM 78.8 °F - 73.4 °F 83% 29.94 in 6.0 mi South 6.9 mph - 0.00 in Rain , Thunderstorm Light Thunderstorms and Rain
10:50 AM 78.8 °F - 73.4 °F 83% 29.95 in 1.5 mi SSW 10.4 mph - 0.01 in Rain , Thunderstorm Light Thunderstorms and Rain
10:53 AM 77.0 °F - 73.9 °F 90% 29.94 in 1.2 mi Variable 6.9 mph - 0.11 in Rain , Thunderstorm Thunderstorms and Rain
10:56 AM 75.2 °F - 73.4 °F 94% 29.99 in 1.0 mi WNW 16.1 mph 28.8 mph 0.11 in Rain , Thunderstorm Heavy Thunderstorms and Rain
10:59 AM 73.4 °F - 71.6 °F 94% 29.99 in 1.0 mi NW 16.1 mph 28.8 mph 0.20 in Rain , Thunderstorm Heavy Thunderstorms and Rain
11:03 AM 71.6 °F - 68.0 °F 88% 29.99 in 0.8 mi NW 17.3 mph 28.8 mph 0.51 in Rain , Thunderstorm Heavy Thunderstorms and Rain
11:09 AM 71.6 °F - 68.0 °F 88% 29.97 in 1.0 mi NNW 16.1 mph 24.2 mph 0.89 in Rain , Thunderstorm Heavy Thunderstorms and Rain
11:14 AM 71.6 °F - 68.0 °F 88% 29.98 in 2.0 mi North 17.3 mph - 0.99 in Rain , Thunderstorm Light Thunderstorms and Rain
11:17 AM 71.6 °F - 68.0 °F 88% 29.97 in 4.0 mi NNW 10.4 mph 21.9 mph 0.99 in Rain , Thunderstorm Light Thunderstorms and Rain
11:22 AM 71.6 °F - 68.0 °F 88% 29.97 in 9.0 mi NNW 9.2 mph - 1.00 in Rain , Thunderstorm Light Thunderstorms and Rain
11:33 AM 73.4 °F - 69.8 °F 88% 29.96 in 8.0 mi NW 6.9 mph - 1.01 in Rain Light Rain
11:53 AM 73.9 °F - 69.1 °F 85% 29.93 in 10.0 mi Calm Calm - 1.01 in Rain Light Rain
12:53 PM 75.0 °F - 71.1 °F 87% 29.88 in 10.0 mi SE 6.9 mph - 0.01 in   Scattered Clouds
1:53 PM 75.0 °F - 72.0 °F 90% 29.88 in 10.0 mi South 9.2 mph - N/A   Mostly Cloudy
2:53 PM 80.1 °F 83.8 °F 72.0 °F 76% 29.86 in 10.0 mi South 11.5 mph - N/A   Mostly Cloudy
3:53 PM 82.9 °F 88.0 °F 72.0 °F 69% 29.84 in 10.0 mi SW 10.4 mph 16.1 mph N/A   Partly Cloudy
4:53 PM 84.9 °F 90.7 °F 72.0 °F 65% 29.84 in 10.0 mi WSW 10.4 mph - N/A   Partly Cloudy
5:53 PM 84.0 °F 89.6 °F 72.0 °F 67% 29.83 in 10.0 mi SW 12.7 mph 23.0 mph N/A   Partly Cloudy
6:53 PM 82.9 °F 88.8 °F 73.0 °F 72% 29.82 in 10.0 mi SW 6.9 mph 20.7 mph N/A   Partly Cloudy
7:53 PM 82.0 °F 87.4 °F 73.0 °F 74% 29.82 in 10.0 mi SW 4.6 mph - N/A   Partly Cloudy
8:53 PM 81.0 °F 85.8 °F 73.0 °F 77% 29.82 in 10.0 mi SW 4.6 mph - N/A   Partly Cloudy
9:53 PM 80.1 °F 84.5 °F 73.9 °F 81% 29.83 in 10.0 mi Variable 4.6 mph - N/A   Partly Cloudy
10:53 PM 79.0 °F - 73.9 °F 84% 29.84 in 10.0 mi Calm Calm - N/A   Partly Cloudy
11:53 PM 78.1 °F - 73.0 °F 84% 29.85 in 10.0 mi WNW 3.5 mph - N/A   Clear